Location: Harwich
(41.6860°N, 70.0760°W)
Time: 16:43:24
(UTC-04:00)

Cosmos 2228 - Visible Passes

Search period start: 18 April 2014 00:00
Search period end: 28 April 2014 00:00
Orbit: 597 x 626 km, 82.5° (Epoch: 18 April)

Date Brightness Start Highest point End Pass type
(mag) Time Alt. Az. Time Alt. Az. Time Alt. Az.
18 Apr 5.6 23:32:35 10° N 23:33:49 18° N 23:33:49 18° N visible
19 Apr 5.6 23:47:29 10° N 23:48:47 19° NNW 23:48:47 19° NNW visible
20 Apr 5.5 22:25:54 10° NNE 22:26:46 13° NE 22:26:46 13° NE visible
21 Apr 5.7 00:02:35 10° NNW 00:03:46 17° NNW 00:03:46 17° NNW visible
21 Apr 5.2 22:40:07 10° NNE 22:41:45 19° NNE 22:41:45 19° NNE visible
22 Apr 5.9 00:17:59 10° NW 00:18:45 14° NW 00:18:45 14° NW visible
22 Apr 5.0 22:54:42 10° N 22:56:44 25° NNE 22:56:44 25° NNE visible
23 Apr 4.9 23:09:31 10° N 23:11:44 29° N 23:11:44 29° N visible
24 Apr 5.3 21:48:19 10° NE 21:49:45 14° NE 21:49:45 14° NE visible
24 Apr 5.0 23:24:32 10° NNW 23:26:45 27° NNW 23:26:45 27° NNW visible
25 Apr 4.8 22:02:18 10° NNE 22:04:45 22° NE 22:04:45 22° NE visible
25 Apr 5.3 23:39:48 10° NNW 23:41:45 21° NW 23:41:45 21° NW visible
26 Apr 4.2 22:16:47 10° N 22:19:47 34° NE 22:19:47 34° NE visible
26 Apr 5.7 23:55:29 10° NW 23:56:47 14° WNW 23:56:47 14° WNW visible
27 Apr 3.8 22:31:30 10° N 22:34:49 48° N 22:34:49 48° N visible
